Location: Most
(50.5133°N, 13.6207°E)
Time: 14:25:45
(UTC+02:00)

ISS - Pass Details

Date: 13 September 2017
Orbit: 402 x 407 km, 51.6° (Epoch: 21 September)

Event Time Altitude Azimuth Distance (km) Brightness Sun altitude
Exits shadow 05:26:58 16° 282° (WNW) 1,172 -2.0 -11.8°
Maximum altitude 05:29:31 74° 6° (N) 428 -3.7 -11.4°
Drops below altitude 10° 05:32:49 10° 93° (E) 1,471 0.2 -10.9°
Sets 05:34:55 0° 95° (E) 2,331 1.4 -10.6°
